Simultaneous Nadir Overpasses (SNOs) Predictions

Prediction of SNOs between AQUA and GOES-15 Satellite Orbit:

Table of predicted SNOs for the next 14.0 days since TLE Epoch: 10/27/2017
Index Date Time (AQUA) AQUA Lat,Lon GOES-15 Lat,Lon Distance(km) Time Diff (sec)
1 10/29/2017 10:31:40 -0.03,-134.08 0.13,-134.93 96.24 80
2 10/31/2017 10:19:29 -0.67,-131.13 0.13,-134.86 423.89 80
3 10/31/2017 22:40:53 -0.47,-136.31 -0.11,-134.75 178.29 80
4 11/02/2017 22:28:42 0.18,-133.36 -0.11,-134.67 148.84 80
5 11/03/2017 10:49:57 0.93,-138.51 0.09,-134.73 430.78 80
6 11/04/2017 22:16:30 0.78,-130.40 -0.12,-134.57 475.27 80
7 11/05/2017 10:37:46 0.27,-135.56 0.10,-134.63 104.76 80
8 11/07/2017 10:25:34 -0.33,-132.60 0.10,-134.53 220.44 80
9 11/07/2017 22:46:58 -0.79,-137.78 -0.08,-134.41 383.33 80
10 11/09/2017 22:34:46 -0.17,-134.82 -0.08,-134.30 58.85 80




NCC Satellite Simultaneous Nadir Overpasses (SNOs) Prediction Service
